Hourly Data Report for July 15, 2017

TORONTO CITY
ONTARIO

43°40'00.000" N
79°24'00.000" W
112.50 m
6158355
71508
XTO

Download Data

Hourly Data (July 2017)
Hourly Data Report for July 15, 2017
TIME
LST
Temp Definition
°C
Dew Point Definition
°C
Rel Hum Definition
%
Precip. Amount Definition
mm

Wind Dir Definition
10's deg

Wind Spd Definition
km/h
Visibility Definition
km
Stn Press Definition
kPa
Hmdx Definition


Wind Chill Definition


Weather Definition


00:00 19.4 14.2 72 0.0 LegendMM LegendMM   100.14     LegendNANA
01:00 19.1 14.3 74 0.0 LegendMM LegendMM   100.14     LegendNANA
02:00 18.9 14.4 75 0.0 LegendMM LegendMM   100.13     LegendNANA
03:00 18.8 14.3 75 0.0 LegendMM LegendMM   100.14     LegendNANA
04:00 18.5 14.7 78 0.0 LegendMM LegendMM   100.18     LegendNANA
05:00 18.5 14.6 78 0.0 LegendMM LegendMM   100.22     LegendNANA
06:00 19.1 14.5 75 0.0 LegendMM LegendMM   100.27     LegendNANA
07:00 19.5 14.2 72 0.0 LegendMM LegendMM   100.29     LegendNANA
08:00 20.4 13.8 66 0.0 LegendMM LegendMM   100.30     LegendNANA
09:00 21.6 14.7 65 0.0 LegendMM LegendMM   100.29 25   LegendNANA
10:00 23.6 14.0 55 0.0 LegendMM LegendMM   100.29 27   LegendNANA
11:00 24.6 14.2 52 0.0 LegendMM LegendMM   100.24 28   LegendNANA
12:00 25.4 12.7 45 0.0 LegendMM LegendMM   100.23 28   LegendNANA
13:00 23.6 14.6 57 0.0 LegendMM LegendMM   100.23 27   LegendNANA
14:00 24.5 14.6 54 0.0 LegendMM LegendMM   100.18 28   LegendNANA
15:00 26.0 15.3 52 0.0 LegendMM LegendMM   100.13 30   LegendNANA
16:00 25.4 14.6 51 0.0 LegendMM LegendMM   100.06 29   LegendNANA
17:00 25.9 15.4 52 0.0 LegendMM LegendMM   100.01 30   LegendNANA
18:00 26.7 13.1 43 0.0 LegendMM LegendMM   100.01 30   LegendNANA
19:00 25.9 12.7 44 0.0 LegendMM LegendMM   100.05 29   LegendNANA
20:00 24.3 9.9 40 0.0 LegendMM LegendMM   100.08 26   LegendNANA
21:00 22.9 7.9 38 0.0 LegendMM LegendMM   100.06     LegendNANA
22:00 21.8 9.6 46 0.0 LegendMM LegendMM   100.08     LegendNANA
23:00 20.3 7.4 43 0.0 LegendMM LegendMM   100.06     LegendNANA

Notes on Data Quality.

Legend

  • E = Estimated
  • M = Missing
  • NA = Not Available*
  • [empty] = Indicates an unobserved value
Date modified: